星链-4390 (STARLINK-4390 )

导读

STARLINK-4390是美国太空探索技术公司Starlink星链卫星互联网项目的组网卫星,于2022年8月31日在美国发射升空,星链计划旨在通过近地轨道卫星星座,为全球提供高速互联网接入服务,该卫星是星链大规模组网进程中的一员,承担着扩展星座覆盖范围、提升服务容量的作用。

基本信息
目录编号:
53653
目录名称:
STARLINK-4390
国际标识:
2022-105F
轨道中心:
EARTH
卫星名称:
星链-4390
卫星全名:
星链-4390 (STARLINK-4390 )
卫星状态:
在轨 (已飞行1474 天)
发射日期:
2022-08-31 UTC
国别 :
美国 (US)
星等 :
--
该卫星已列入 空间交会检测服务 Space Conjunction Data Service (SCDS) ,当前飞行风险评估等级: 无高风险
轨道信息
数据来源 国际轨道数据
星历时间: 2026-09-12T14:14:13+0800
18小时前
查看轨道信息
半长轴: 6650.858km
偏心率: 0.0003199
轨道倾角: 97.590°
近地点辐角 171.438°
升交点赤经 145.445°
平近点角 188.695°
近地点: 270.593km
远地点: 274.849km
周期: 89.966分钟
每日圈数: 16.006127
详细信息
固有亮度:
5
最大亮度:
2.5
卫星平台:
Starlink v1.5
覆盖范围:
全球
运营商:
太空探索技术公司
运营商所在国:
美国
制造商(研发单位):
太空探索技术公司
制造商所在国:
美国
使用方式:
暂无
卫星简介
星链(Starlink)计划是由太空探索技术公司(SpaceX)提出的一个巨型低轨卫星互联网星座项目,计划在2019年至2024年间在太空搭建由约1.2万颗卫星组成的“星链”网络,其中1584颗将部署在地球上空550千米处的近地轨道,并从2020年开始工作。该卫星仍在工作。
2D轨道图
3D轨道图
轨道高度分析图
轨道倾角分析图
轨道综合分析图
查看轨道综合分析图
与全量物体交会距离演化趋势
与全量物体交会风险概率演化趋势